User: anonymous   Login
Location: Unspecified
(0.0000°N, 0.0000°E)
Time: 11:56:33
(UTC+00:00)
Language:

ASUSAT - Orbit

View from above orbital plane
View from above orbital plane
View from above satellite
View from above satellite

Ground track
Ground track

The orbit data is extracted from the following two-line orbital elements,

1 26065U 00004E   21270.58969227  .00000022  00000-0  27355-4 0  9993
2 26065 100.2011 225.1530 0036217 218.7122 141.1462 14.36951307135924
Epoch (UTC): 27 September 2021 14:09:09
Eccentricity: 0.0036217
inclination: 100.2011°
perigee height: 743 km
apogee height: 794 km
right ascension of ascending node: 225.1530°
argument of perigee: 218.7122°
revolutions per day: 14.36951307
mean anomaly at epoch: 141.1462°
orbit number at epoch: 13592

The dashed part of the orbit path shows where the satellite is in the earth's shadow,  

DLR